Location: Kra?nica
(53.4833°N, 14.6167°E)
Time: 14:23:51
(UTC+00:00)

TIGRISAT - Visible Passes

Search period start: 04 October 2024 00:00
Search period end: 14 October 2024 00:00
Orbit: 591 x 666 km, 97.7° (Epoch: 04 October)

Date Brightness Start Highest point End Pass type
(mag) Time Alt. Az. Time Alt. Az. Time Alt. Az.
04 Oct ? 00:55:48 11° E 00:58:28 17° NE 01:01:21 10° NNE visible
04 Oct ? 02:33:10 54° S 02:34:11 86° WSW 02:38:42 10° NNW visible
04 Oct ? 04:10:32 13° W 04:11:14 13° W 04:13:20 10° NW visible
04 Oct ? 17:25:16 10° NNW 17:28:20 18° NW 17:31:23 10° W visible
05 Oct ? 01:16:20 18° E 01:18:14 23° ENE 01:21:48 10° N visible
05 Oct ? 02:53:41 53° SW 02:54:13 57° W 02:58:40 10° NNW visible
05 Oct ? 17:45:56 10° NNW 17:48:02 13° NW 17:50:09 10° W visible
06 Oct ? 01:36:50 28° E 01:38:03 33° ENE 01:42:05 10° N visible
06 Oct ? 03:14:12 38° W 03:14:18 38° W 03:18:31 10° NNW visible
07 Oct ? 01:57:20 44° E 01:57:52 47° ENE 02:02:14 10° N visible
07 Oct ? 03:34:42 26° W 03:34:42 26° W 03:38:13 10° NW visible
08 Oct ? 00:40:27 11° ENE 00:42:16 13° NE 00:44:27 10° NNE visible
08 Oct ? 02:17:49 70° ENE 02:17:49 70° ENE 02:22:17 10° N visible
08 Oct ? 03:55:11 18° WNW 03:55:11 18° WNW 03:57:42 10° NW visible
08 Oct ? 17:08:28 10° N 17:12:03 23° WNW 17:15:37 10° WSW visible
09 Oct ? 01:00:55 17° ENE 01:01:55 18° NE 01:05:02 10° NNE visible
09 Oct ? 02:38:17 65° NW 02:38:17 65° NW 02:42:15 10° NNW visible
09 Oct ? 04:15:39 12° WNW 04:15:39 12° WNW 04:16:38 10° WNW visible
09 Oct ? 17:28:50 10° NNW 17:31:45 17° NW 17:34:38 10° W visible
10 Oct ? 01:21:22 25° ENE 01:21:37 25° ENE 01:25:20 10° N visible
10 Oct ? 02:58:44 42° NW 02:58:44 42° NW 03:02:07 10° NNW visible
10 Oct ? 17:49:31 10° NNW 17:51:21 12° NW 17:53:12 10° WNW visible
11 Oct ? 01:41:48 34° NE 01:41:48 34° NE 01:45:29 10° N visible
11 Oct ? 03:19:10 28° NW 03:19:10 28° NW 03:21:50 10° NNW visible
12 Oct ? 00:24:56 10° ENE 00:25:48 10° NE 00:26:41 10° NE visible
12 Oct ? 02:02:13 41° NNE 02:02:13 41° NNE 02:05:32 10° N visible
12 Oct ? 03:39:35 19° NW 03:39:35 19° NW 03:41:25 10° NW visible
12 Oct ? 16:51:29 10° N 16:55:27 29° WNW 16:59:23 10° WSW visible
13 Oct ? 00:45:15 14° NE 00:45:21 14° NE 00:47:48 10° NNE visible
13 Oct ? 02:22:37 38° N 02:22:37 38° N 02:25:28 10° NNW visible
13 Oct ? 03:59:58 13° NW 03:59:58 13° NW 04:00:45 10° NW visible
13 Oct ? 17:11:39 10° N 17:15:06 22° WNW 17:18:32 10° WSW visible
